Flag for U.S.A. Weather past 2 weeks in San Angelo, Texas, U.S.A.

Now
70 °F

Clear.


Feels Like: 67 °F
Forecast: 70 / 88 °F
Wind: 7 mph from East

Location: Mathis Field

Current Time: May 27, 2015 at 3:07:08 AM

Latest Report: May 27, 2015 at 1:51 AM


Visibility: 10 mi

Pressure: 29.94 "Hg

Humidity: 90%

Dew point: 67 °F

Location of San AngeloLocation

Historic Weather in San Angelo — Graph

°F

San Angelo temperature yesterday

Maximum temperature yesterday: 90 °F (at 3:51 PM)
Minimum temperature yesterday: 63 °F (at 12:51 AM)
Average temperature yesterday: 76 °F

Past Weeks' High & Low Weather Summary

 TemperatureHumidityPressure
High91 °F (May 18, 4:51 PM)100% (May 18, 11:51 PM)30.28 "Hg (May 18, 11:51 PM)
Low56 °F (May 21, 7:51 AM)24% (May 17, 3:51 PM)29.62 "Hg (May 16, 7:51 PM)
Average72 °F75%29.93 "Hg
* Reported May 12 1:51 AM — May 27 1:51 AM, San Angelo, Weather by CustomWeather, © 2015

Note: Actual official high and low records may vary slightly from our data, if they occured in-between our weather recording intervals... More about our weather records

Advertising

San Angelo weather history for previous 24 hours

 ConditionsComfort  
Time TempWeatherWind HumidityBarometerVisibility
1:51 AM
Wed, May 27
70 °FClear.7 mph90%29.94 "Hg10 mi
12:51 AM74 °FClear.6 mph82%29.93 "Hg10 mi
11:51 PM
Tue, May 26
74 °FClear.5 mph79%29.91 "Hg10 mi
10:51 PM73 °FClear.7 mph81%29.89 "Hg10 mi
9:51 PM74 °FClear.5 mph76%29.89 "Hg10 mi
8:51 PM78 °FSunny.7 mph71%29.89 "Hg10 mi
7:51 PM84 °FScattered clouds.12 mph53%29.84 "Hg10 mi
6:51 PM82 °FSunny.6 mph58%29.84 "Hg10 mi
5:51 PM85 °FSunny.15 mph50%29.80 "Hg10 mi
4:51 PM88 °FScattered clouds.12 mph45%29.85 "Hg10 mi
3:51 PM90 °FPassing clouds.13 mph38%29.86 "Hg10 mi
2:51 PM89 °FSunny.18 mph41%29.88 "Hg10 mi
1:51 PM88 °FSunny.18 mph46%29.90 "Hg10 mi
12:51 PM86 °FScattered clouds.17 mph51%29.92 "Hg10 mi
11:51 AM84 °FPassing clouds.21 mph59%29.92 "Hg10 mi
10:51 AM82 °FSunny.17 mph65%29.93 "Hg10 mi
10:00 AM79 °FScattered clouds.20 mph74%29.99 "Hg10 mi
8:51 AM74 °FPartly sunny.15 mph85%29.93 "Hg10 mi
7:51 AM71 °FLow clouds.15 mph90%29.91 "Hg10 mi
6:51 AM67 °FClear.12 mph90%29.89 "Hg10 mi
5:51 AM67 °FClear.12 mph90%29.87 "Hg10 mi
4:51 AM66 °FClear.14 mph90%29.85 "Hg10 mi
3:51 AM63 °FClear.7 mph90%29.85 "Hg10 mi
Weather by CustomWeather, © 2015

See weather overviewHow to use our weather pages